Year,Month,Day,Hour,Minute,Value (Times are PST for temperature in C)
2009,04,24,00,00,8.30
2009,04,24,00,01,8.30
2009,04,24,00,02,8.30
2009,04,24,00,03,8.30
2009,04,24,00,04,8.40
2009,04,24,00,05,8.40
2009,04,24,00,06,8.40
2009,04,24,00,07,8.40
2009,04,24,00,08,8.50
2009,04,24,00,09,8.50
2009,04,24,00,10,8.50
2009,04,24,00,11,8.60
2009,04,24,00,12,8.60
2009,04,24,00,13,8.60
2009,04,24,00,14,8.60
2009,04,24,00,15,8.60
2009,04,24,00,16,8.60
2009,04,24,00,17,8.60
2009,04,24,00,18,8.60
2009,04,24,00,19,8.60
2009,04,24,00,20,8.60
2009,04,24,00,21,8.60
2009,04,24,00,22,8.60
2009,04,24,00,23,8.60
2009,04,24,00,24,8.60
2009,04,24,00,25,8.60
2009,04,24,00,26,8.60
2009,04,24,00,27,8.60
2009,04,24,00,28,8.60
2009,04,24,00,29,8.50
2009,04,24,00,30,8.50
2009,04,24,00,31,8.40
2009,04,24,00,32,8.40
2009,04,24,00,33,8.40
2009,04,24,00,34,8.40
2009,04,24,00,35,8.30
2009,04,24,00,36,8.30
2009,04,24,00,37,8.30
2009,04,24,00,38,8.30
2009,04,24,00,39,8.30
2009,04,24,00,40,8.20
2009,04,24,00,41,8.20
2009,04,24,00,42,8.20
2009,04,24,00,43,8.20
2009,04,24,00,44,8.20
2009,04,24,00,45,8.20
2009,04,24,00,46,8.20
2009,04,24,00,47,8.20
2009,04,24,00,48,8.10
2009,04,24,00,49,8.10
2009,04,24,00,50,8.10
2009,04,24,00,51,8.00
2009,04,24,00,52,8.00
2009,04,24,00,53,8.00
2009,04,24,00,54,7.90
2009,04,24,00,55,7.90
2009,04,24,00,56,8.00
2009,04,24,00,57,8.00
2009,04,24,00,58,8.00
2009,04,24,00,59,8.10
2009,04,24,01,00,8.10
2009,04,24,01,01,8.10
2009,04,24,01,02,8.10
2009,04,24,01,03,8.10
2009,04,24,01,04,8.10
2009,04,24,01,05,8.10
2009,04,24,01,06,8.10
2009,04,24,01,07,8.10
2009,04,24,01,08,8.00
2009,04,24,01,09,8.00
2009,04,24,01,10,8.00
2009,04,24,01,11,8.00
2009,04,24,01,12,7.90
2009,04,24,01,13,7.90
2009,04,24,01,14,7.90
2009,04,24,01,15,7.90
2009,04,24,01,16,7.90
2009,04,24,01,17,7.90
2009,04,24,01,18,7.90
2009,04,24,01,19,7.90
2009,04,24,01,20,7.80
2009,04,24,01,21,7.80
2009,04,24,01,22,7.80
2009,04,24,01,23,7.80
2009,04,24,01,24,7.80
2009,04,24,01,25,7.80
2009,04,24,01,26,7.70
2009,04,24,01,27,7.70
2009,04,24,01,28,7.70
2009,04,24,01,29,7.70
2009,04,24,01,30,7.70
2009,04,24,01,31,7.60
2009,04,24,01,32,7.60
2009,04,24,01,33,7.60
2009,04,24,01,34,7.50
2009,04,24,01,35,7.50
2009,04,24,01,36,7.40
2009,04,24,01,37,7.40
2009,04,24,01,38,7.30
2009,04,24,01,39,7.30
2009,04,24,01,40,7.20
2009,04,24,01,41,7.20
2009,04,24,01,42,7.10
2009,04,24,01,43,7.10
2009,04,24,01,44,7.10
2009,04,24,01,45,7.00
2009,04,24,01,46,7.00
2009,04,24,01,47,6.90
2009,04,24,01,48,6.90
2009,04,24,01,49,6.90
2009,04,24,01,50,6.90
2009,04,24,01,51,6.90
2009,04,24,01,52,6.90
2009,04,24,01,53,6.80
2009,04,24,01,54,6.80
2009,04,24,01,55,6.70
2009,04,24,01,56,6.60
2009,04,24,01,57,6.40
2009,04,24,01,58,6.30
2009,04,24,01,59,6.30
2009,04,24,02,00,6.10
2009,04,24,02,01,6.00
2009,04,24,02,02,5.90
2009,04,24,02,03,5.80
2009,04,24,02,04,5.70
2009,04,24,02,05,5.70
2009,04,24,02,06,5.60
2009,04,24,02,07,5.60
2009,04,24,02,08,5.60
2009,04,24,02,09,5.60
2009,04,24,02,10,5.60
2009,04,24,02,11,5.70
2009,04,24,02,12,5.70
2009,04,24,02,13,5.80
2009,04,24,02,14,5.80
2009,04,24,02,15,5.80
2009,04,24,02,16,5.80
2009,04,24,02,17,5.80
2009,04,24,02,18,5.80
2009,04,24,02,19,5.80
2009,04,24,02,20,5.80
2009,04,24,02,21,5.80
2009,04,24,02,22,5.90
2009,04,24,02,23,5.90
2009,04,24,02,24,5.90
2009,04,24,02,25,5.90
2009,04,24,02,26,5.90
2009,04,24,02,27,5.90
2009,04,24,02,28,5.90
2009,04,24,02,29,5.90
2009,04,24,02,30,5.80
2009,04,24,02,31,5.80
2009,04,24,02,32,5.80
2009,04,24,02,33,5.70
2009,04,24,02,34,5.70
2009,04,24,02,35,5.70
2009,04,24,02,36,5.70
2009,04,24,02,37,5.60
2009,04,24,02,38,5.60
2009,04,24,02,39,5.60
2009,04,24,02,40,5.60
2009,04,24,02,41,5.70
2009,04,24,02,42,5.70
2009,04,24,02,43,5.80
2009,04,24,02,44,5.80
2009,04,24,02,45,5.80
2009,04,24,02,46,5.80
2009,04,24,02,47,5.80
2009,04,24,02,48,5.90
2009,04,24,02,49,5.90
2009,04,24,02,50,5.90
2009,04,24,02,51,5.90
2009,04,24,02,52,5.90
2009,04,24,02,53,6.00
2009,04,24,02,54,6.00
2009,04,24,02,55,6.00
2009,04,24,02,56,5.90
2009,04,24,02,57,5.80
2009,04,24,02,58,5.80
2009,04,24,02,59,5.70
2009,04,24,03,00,5.60
2009,04,24,03,01,5.60
2009,04,24,03,02,5.50
2009,04,24,03,03,5.50
2009,04,24,03,04,5.50
2009,04,24,03,05,5.50
2009,04,24,03,06,5.60
2009,04,24,03,07,5.60
2009,04,24,03,08,5.60
2009,04,24,03,09,5.60
2009,04,24,03,10,5.60
2009,04,24,03,11,5.60
2009,04,24,03,12,5.60
2009,04,24,03,13,5.60
2009,04,24,03,14,5.70
2009,04,24,03,15,5.70
2009,04,24,03,16,5.70
2009,04,24,03,17,5.80
2009,04,24,03,18,5.80
2009,04,24,03,19,5.90
2009,04,24,03,20,6.00
2009,04,24,03,21,6.10
2009,04,24,03,22,6.20
2009,04,24,03,23,6.30
2009,04,24,03,24,6.40
2009,04,24,03,25,6.50
2009,04,24,03,26,6.50
2009,04,24,03,27,6.60
2009,04,24,03,28,6.60
2009,04,24,03,29,6.70
2009,04,24,03,30,6.70
2009,04,24,03,31,6.70
2009,04,24,03,32,6.70
2009,04,24,03,33,6.70
2009,04,24,03,34,6.70
2009,04,24,03,35,6.70
2009,04,24,03,36,6.70
2009,04,24,03,37,6.70
2009,04,24,03,38,6.70
2009,04,24,03,39,6.70
2009,04,24,03,40,6.70
2009,04,24,03,41,6.70
2009,04,24,03,42,6.70
2009,04,24,03,43,6.70
2009,04,24,03,44,6.70
2009,04,24,03,45,6.70
2009,04,24,03,46,6.70
2009,04,24,03,47,6.60
2009,04,24,03,48,6.60
2009,04,24,03,49,6.60
2009,04,24,03,50,6.60
2009,04,24,03,51,6.50
2009,04,24,03,52,6.50
2009,04,24,03,53,6.50
2009,04,24,03,54,6.40
2009,04,24,03,55,6.40
2009,04,24,03,56,6.40
2009,04,24,03,57,6.40
2009,04,24,03,58,6.30
2009,04,24,03,59,6.30
2009,04,24,04,00,6.30
2009,04,24,04,01,6.20
2009,04,24,04,02,6.20
2009,04,24,04,03,6.20
2009,04,24,04,04,6.20
2009,04,24,04,05,6.20
2009,04,24,04,06,6.20
2009,04,24,04,07,6.20
2009,04,24,04,08,6.20
2009,04,24,04,09,6.20
2009,04,24,04,10,6.10
2009,04,24,04,11,6.10
2009,04,24,04,12,6.10
2009,04,24,04,13,6.10
2009,04,24,04,14,6.10
2009,04,24,04,15,6.10
2009,04,24,04,16,6.10
2009,04,24,04,17,6.00
2009,04,24,04,18,6.00
2009,04,24,04,19,6.00
2009,04,24,04,20,5.90
2009,04,24,04,21,5.90
2009,04,24,04,22,5.80
2009,04,24,04,23,5.80
2009,04,24,04,24,5.70
2009,04,24,04,25,5.70
2009,04,24,04,26,5.70
2009,04,24,04,27,5.70
2009,04,24,04,28,5.70
2009,04,24,04,29,5.70
2009,04,24,04,30,5.70
2009,04,24,04,31,5.70
2009,04,24,04,32,5.70
2009,04,24,04,33,5.80
2009,04,24,04,34,5.80
2009,04,24,04,35,5.80
2009,04,24,04,36,5.80
2009,04,24,04,37,5.90
2009,04,24,04,38,5.90
2009,04,24,04,39,5.90
2009,04,24,04,40,5.90
2009,04,24,04,41,5.90
2009,04,24,04,42,5.90
2009,04,24,04,43,5.90
2009,04,24,04,44,5.90
2009,04,24,04,45,5.90
2009,04,24,04,46,5.90
2009,04,24,04,47,5.90
2009,04,24,04,48,5.90
2009,04,24,04,49,5.90
2009,04,24,04,50,5.80
2009,04,24,04,51,5.80
2009,04,24,04,52,5.80
2009,04,24,04,53,5.80
2009,04,24,04,54,5.70
2009,04,24,04,55,5.70
2009,04,24,04,56,5.70
2009,04,24,04,57,5.60
2009,04,24,04,58,5.60
2009,04,24,04,59,5.60
2009,04,24,05,00,5.60
2009,04,24,05,01,5.60
2009,04,24,05,02,5.60
2009,04,24,05,03,5.60
2009,04,24,05,04,5.60
2009,04,24,05,05,5.60
2009,04,24,05,06,5.60
2009,04,24,05,07,5.60
2009,04,24,05,08,5.60
2009,04,24,05,09,5.70
2009,04,24,05,10,5.70
2009,04,24,05,11,5.70
2009,04,24,05,12,5.70
2009,04,24,05,13,5.80
2009,04,24,05,14,5.80
2009,04,24,05,15,5.80
2009,04,24,05,16,5.80
2009,04,24,05,17,5.80
2009,04,24,05,18,5.80
2009,04,24,05,19,5.80
2009,04,24,05,20,5.80
2009,04,24,05,21,5.80
2009,04,24,05,22,5.80
2009,04,24,05,23,5.70
2009,04,24,05,24,5.70
2009,04,24,05,25,5.60
2009,04,24,05,26,5.50
2009,04,24,05,27,5.50
2009,04,24,05,28,5.40
2009,04,24,05,29,5.40
2009,04,24,05,30,5.30
2009,04,24,05,31,5.30
2009,04,24,05,32,5.20
2009,04,24,05,33,5.20
2009,04,24,05,34,5.20
2009,04,24,05,35,5.10
2009,04,24,05,36,5.10
2009,04,24,05,37,5.00
2009,04,24,05,38,5.00
2009,04,24,05,39,4.90
2009,04,24,05,40,4.90
2009,04,24,05,41,4.90
2009,04,24,05,42,4.90
2009,04,24,05,43,4.90
2009,04,24,05,44,5.00
2009,04,24,05,45,5.00
2009,04,24,05,46,5.00
2009,04,24,05,47,5.00
2009,04,24,05,48,5.00
2009,04,24,05,49,5.10
2009,04,24,05,50,5.10
2009,04,24,05,51,5.10
2009,04,24,05,52,5.10
2009,04,24,05,53,5.10
2009,04,24,05,54,5.00
2009,04,24,05,55,5.00
2009,04,24,05,56,4.90
2009,04,24,05,57,4.90
2009,04,24,05,58,4.90
2009,04,24,05,59,4.90
2009,04,24,06,00,4.90
2009,04,24,06,01,4.80
2009,04,24,06,02,4.80
2009,04,24,06,03,4.80
2009,04,24,06,04,4.80
2009,04,24,06,05,4.80
2009,04,24,06,06,4.70
2009,04,24,06,07,4.60
2009,04,24,06,08,4.60
2009,04,24,06,09,4.60
2009,04,24,06,10,4.50
2009,04,24,06,11,4.50
2009,04,24,06,12,4.50
2009,04,24,06,13,4.40
2009,04,24,06,14,4.40
2009,04,24,06,15,4.40
2009,04,24,06,16,4.30
2009,04,24,06,17,4.30
2009,04,24,06,18,4.30
2009,04,24,06,19,4.30
2009,04,24,06,20,4.30
2009,04,24,06,21,4.30
2009,04,24,06,22,4.30
2009,04,24,06,23,4.30
2009,04,24,06,24,4.30
2009,04,24,06,25,4.40
2009,04,24,06,26,4.40
2009,04,24,06,27,4.40
2009,04,24,06,28,4.40
2009,04,24,06,29,4.40
2009,04,24,06,30,4.50
2009,04,24,06,31,4.60
2009,04,24,06,32,4.70
2009,04,24,06,33,4.80
2009,04,24,06,34,4.80
2009,04,24,06,35,4.90
2009,04,24,06,36,5.00
2009,04,24,06,37,5.10
2009,04,24,06,38,5.10
2009,04,24,06,39,5.20
2009,04,24,06,40,5.20
2009,04,24,06,41,5.20
2009,04,24,06,42,5.30
2009,04,24,06,43,5.40
2009,04,24,06,44,5.40
2009,04,24,06,45,5.50
2009,04,24,06,46,5.50
2009,04,24,06,47,5.50
2009,04,24,06,48,5.60
2009,04,24,06,49,5.60
2009,04,24,06,50,5.70
2009,04,24,06,51,5.70
2009,04,24,06,52,5.70
2009,04,24,06,53,5.80
2009,04,24,06,54,5.80
2009,04,24,06,55,5.80
2009,04,24,06,56,5.90
2009,04,24,06,57,5.90
2009,04,24,06,58,5.90
2009,04,24,06,59,5.90
2009,04,24,07,00,6.00
2009,04,24,07,01,6.00
2009,04,24,07,02,6.00
2009,04,24,07,03,6.00
2009,04,24,07,04,6.00
2009,04,24,07,05,6.00
2009,04,24,07,06,5.90
2009,04,24,07,07,5.90
2009,04,24,07,08,5.90
2009,04,24,07,09,6.00
2009,04,24,07,10,6.00
2009,04,24,07,11,6.00
2009,04,24,07,12,6.10
2009,04,24,07,13,6.10
2009,04,24,07,14,6.20
2009,04,24,07,15,6.30
2009,04,24,07,16,6.40
2009,04,24,07,17,6.40
2009,04,24,07,18,6.40
2009,04,24,07,19,6.50
2009,04,24,07,20,6.50
2009,04,24,07,21,6.40
2009,04,24,07,22,6.40
2009,04,24,07,23,6.40
2009,04,24,07,24,6.50
2009,04,24,07,25,6.50
2009,04,24,07,26,6.60
2009,04,24,07,27,6.60
2009,04,24,07,28,6.70
2009,04,24,07,29,6.70
2009,04,24,07,30,6.80
2009,04,24,07,31,6.80
2009,04,24,07,32,6.80
2009,04,24,07,33,6.90
2009,04,24,07,34,6.90
2009,04,24,07,35,7.00
2009,04,24,07,36,7.00
2009,04,24,07,37,7.00
2009,04,24,07,38,7.00
2009,04,24,07,39,7.00
2009,04,24,07,40,7.00
2009,04,24,07,41,7.10
2009,04,24,07,42,7.10
2009,04,24,07,43,7.10
2009,04,24,07,44,7.20
2009,04,24,07,45,7.20
2009,04,24,07,46,7.20
2009,04,24,07,47,7.20
2009,04,24,07,48,7.20
2009,04,24,07,49,7.20
2009,04,24,07,50,7.20
2009,04,24,07,51,7.20
2009,04,24,07,52,7.20
2009,04,24,07,53,7.20
2009,04,24,07,54,7.30
2009,04,24,07,55,7.30
2009,04,24,07,56,7.40
2009,04,24,07,57,7.40
2009,04,24,07,58,7.50
2009,04,24,07,59,7.60
2009,04,24,08,00,7.60
2009,04,24,08,01,7.70
2009,04,24,08,02,7.70
2009,04,24,08,03,7.70
2009,04,24,08,04,7.70
2009,04,24,08,05,7.70
2009,04,24,08,06,7.70
2009,04,24,08,07,7.70
2009,04,24,08,08,7.70
2009,04,24,08,09,7.70
2009,04,24,08,10,7.70
2009,04,24,08,11,7.70
2009,04,24,08,12,7.70
2009,04,24,08,13,7.70
2009,04,24,08,14,7.70
2009,04,24,08,15,7.70
2009,04,24,08,16,7.70
2009,04,24,08,17,7.70
2009,04,24,08,18,7.70
2009,04,24,08,19,7.80
2009,04,24,08,20,7.80
2009,04,24,08,21,7.90
2009,04,24,08,22,8.00
2009,04,24,08,23,8.10
2009,04,24,08,24,8.10
2009,04,24,08,25,8.20
2009,04,24,08,26,8.20
2009,04,24,08,27,8.20
2009,04,24,08,28,8.20
2009,04,24,08,29,8.20
2009,04,24,08,30,8.30
2009,04,24,08,31,8.30
2009,04,24,08,32,8.30
2009,04,24,08,33,8.20
2009,04,24,08,34,8.10
2009,04,24,08,35,8.00
2009,04,24,08,36,7.90
2009,04,24,08,37,7.90
2009,04,24,08,38,7.80
2009,04,24,08,39,7.80
2009,04,24,08,40,7.70
2009,04,24,08,41,7.70
2009,04,24,08,42,7.60
2009,04,24,08,43,7.60
2009,04,24,08,44,7.70
2009,04,24,08,45,7.70
2009,04,24,08,46,7.70
2009,04,24,08,47,7.80
2009,04,24,08,48,7.80
2009,04,24,08,49,7.70
2009,04,24,08,50,7.70
2009,04,24,08,51,7.70
2009,04,24,08,52,7.70
2009,04,24,08,53,7.80
2009,04,24,08,54,7.80
2009,04,24,08,55,7.80
2009,04,24,08,56,7.80
2009,04,24,08,57,7.80
2009,04,24,08,58,7.70
2009,04,24,08,59,7.60
2009,04,24,09,00,7.60
2009,04,24,09,01,7.60
2009,04,24,09,02,7.70
2009,04,24,09,03,7.70
2009,04,24,09,04,7.70
2009,04,24,09,05,7.70
2009,04,24,09,06,7.70
2009,04,24,09,07,7.70
2009,04,24,09,08,7.80
2009,04,24,09,09,7.90
2009,04,24,09,10,7.90
2009,04,24,09,11,8.00
2009,04,24,09,12,8.00
2009,04,24,09,13,8.10
2009,04,24,09,14,8.20
2009,04,24,09,15,8.20
2009,04,24,09,16,8.20
2009,04,24,09,17,8.20
2009,04,24,09,18,8.10
2009,04,24,09,19,8.00
2009,04,24,09,20,8.00
2009,04,24,09,21,7.90
2009,04,24,09,22,8.00
2009,04,24,09,23,8.00
2009,04,24,09,24,8.10
2009,04,24,09,25,8.20
2009,04,24,09,26,8.20
2009,04,24,09,27,8.30
2009,04,24,09,28,8.30
2009,04,24,09,29,8.30
2009,04,24,09,30,8.30
2009,04,24,09,31,8.30
2009,04,24,09,32,8.40
2009,04,24,09,33,8.40
2009,04,24,09,34,8.30
2009,04,24,09,35,8.30
2009,04,24,09,36,8.30
2009,04,24,09,37,8.30
2009,04,24,09,38,8.30
2009,04,24,09,39,8.30
2009,04,24,09,40,8.20
2009,04,24,09,41,8.20
2009,04,24,09,42,8.20
2009,04,24,09,43,8.20
2009,04,24,09,44,8.10
2009,04,24,09,45,8.10
2009,04,24,09,46,8.10
2009,04,24,09,47,8.10
2009,04,24,09,48,8.10
2009,04,24,09,49,8.20
2009,04,24,09,50,8.20
2009,04,24,09,51,8.20
2009,04,24,09,52,8.30
2009,04,24,09,53,8.30
2009,04,24,09,54,8.30
2009,04,24,09,55,8.30
2009,04,24,09,56,8.30
2009,04,24,09,57,8.30
2009,04,24,09,58,8.20
2009,04,24,09,59,8.20
2009,04,24,10,00,8.20
2009,04,24,10,01,8.20
2009,04,24,10,02,8.10
2009,04,24,10,03,8.00
2009,04,24,10,04,8.00
2009,04,24,10,05,7.90
2009,04,24,10,06,8.00
2009,04,24,10,07,8.00
2009,04,24,10,08,8.10
2009,04,24,10,09,8.10
2009,04,24,10,10,8.10
2009,04,24,10,11,8.10
2009,04,24,10,12,8.00
2009,04,24,10,13,8.00
2009,04,24,10,14,8.00
2009,04,24,10,15,7.90
2009,04,24,10,16,7.90
2009,04,24,10,17,7.90
2009,04,24,10,18,7.90
2009,04,24,10,19,7.90
2009,04,24,10,20,7.80
2009,04,24,10,21,7.80
2009,04,24,10,22,7.80
2009,04,24,10,23,7.90
2009,04,24,10,24,8.00
2009,04,24,10,25,8.20
2009,04,24,10,26,8.20
2009,04,24,10,27,8.30
2009,04,24,10,28,8.30
2009,04,24,10,29,8.30
2009,04,24,10,30,8.30
2009,04,24,10,31,8.30
2009,04,24,10,32,8.20
2009,04,24,10,33,8.20
2009,04,24,10,34,8.20
2009,04,24,10,35,8.30
2009,04,24,10,36,8.40
2009,04,24,10,37,8.40
2009,04,24,10,38,8.40
2009,04,24,10,39,8.40
2009,04,24,10,40,8.50
2009,04,24,10,41,8.50
2009,04,24,10,42,8.50
2009,04,24,10,43,8.60
2009,04,24,10,44,8.60
2009,04,24,10,45,8.60
2009,04,24,10,46,8.60
2009,04,24,10,47,8.60
2009,04,24,10,48,8.50
2009,04,24,10,49,8.60
2009,04,24,10,50,8.60
2009,04,24,10,51,8.70
2009,04,24,10,52,8.70
2009,04,24,10,53,8.80
2009,04,24,10,54,8.80
2009,04,24,10,55,8.80
2009,04,24,10,56,8.80
2009,04,24,10,57,8.90
2009,04,24,10,58,8.90
2009,04,24,10,59,9.00
2009,04,24,11,00,9.10
2009,04,24,11,01,9.20
2009,04,24,11,02,9.20
2009,04,24,11,03,9.20
2009,04,24,11,04,9.00
2009,04,24,11,05,8.90
2009,04,24,11,06,8.80
2009,04,24,11,07,8.80
2009,04,24,11,08,8.80
2009,04,24,11,09,8.80
2009,04,24,11,10,8.80
2009,04,24,11,11,8.80
2009,04,24,11,12,8.80
2009,04,24,11,13,8.70
2009,04,24,11,14,8.70
2009,04,24,11,15,8.80
2009,04,24,11,16,8.90
2009,04,24,11,17,8.80
2009,04,24,11,18,8.80
2009,04,24,11,19,8.80
2009,04,24,11,20,8.80
2009,04,24,11,21,8.70
2009,04,24,11,22,8.70
2009,04,24,11,23,8.70
2009,04,24,11,24,8.70
2009,04,24,11,25,8.70
2009,04,24,11,26,8.70
2009,04,24,11,27,8.80
2009,04,24,11,28,8.80
2009,04,24,11,29,8.80
2009,04,24,11,30,8.80
2009,04,24,11,31,8.80
2009,04,24,11,32,8.80
2009,04,24,11,33,8.80
2009,04,24,11,34,8.90
2009,04,24,11,35,8.80
2009,04,24,11,36,8.70
2009,04,24,11,37,8.60
2009,04,24,11,38,8.50
2009,04,24,11,39,8.50
2009,04,24,11,40,8.50
2009,04,24,11,41,8.60
2009,04,24,11,42,8.60
2009,04,24,11,43,8.60
2009,04,24,11,44,8.60
2009,04,24,11,45,8.60
2009,04,24,11,46,8.70
2009,04,24,11,47,8.80
2009,04,24,11,48,8.90
2009,04,24,11,49,8.80
2009,04,24,11,50,8.80
2009,04,24,11,51,8.90
2009,04,24,11,52,8.90
2009,04,24,11,53,8.90
2009,04,24,11,54,8.90
2009,04,24,11,55,8.90
2009,04,24,11,56,8.90
2009,04,24,11,57,8.90
2009,04,24,11,58,8.90
2009,04,24,11,59,9.00
2009,04,24,12,00,9.10
2009,04,24,12,01,9.10
2009,04,24,12,02,8.90
2009,04,24,12,03,8.80
2009,04,24,12,04,8.80
2009,04,24,12,05,8.90
2009,04,24,12,06,8.90
2009,04,24,12,07,9.10
2009,04,24,12,08,9.10
2009,04,24,12,09,9.20
2009,04,24,12,10,9.10
2009,04,24,12,11,9.00
2009,04,24,12,12,9.00
2009,04,24,12,13,8.90
2009,04,24,12,14,8.90
2009,04,24,12,15,9.00
2009,04,24,12,16,9.10
2009,04,24,12,17,9.10
2009,04,24,12,18,9.10
2009,04,24,12,19,9.00
2009,04,24,12,20,9.00
2009,04,24,12,21,9.10
2009,04,24,12,22,9.10
2009,04,24,12,23,9.20
2009,04,24,12,24,9.20
2009,04,24,12,25,9.10
2009,04,24,12,26,9.10
2009,04,24,12,27,9.10
2009,04,24,12,28,9.10
2009,04,24,12,29,9.10
2009,04,24,12,30,9.00
2009,04,24,12,31,9.00
2009,04,24,12,32,9.00
2009,04,24,12,33,9.00
2009,04,24,12,34,9.00
2009,04,24,12,35,9.10
2009,04,24,12,36,9.20
2009,04,24,12,37,9.30
2009,04,24,12,38,9.40
2009,04,24,12,39,9.50
2009,04,24,12,40,9.50
2009,04,24,12,41,9.40
2009,04,24,12,42,9.40
2009,04,24,12,43,9.40
2009,04,24,12,44,9.40
2009,04,24,12,45,9.40
2009,04,24,12,46,9.50
2009,04,24,12,47,9.60
2009,04,24,12,48,9.70
2009,04,24,12,49,9.70
2009,04,24,12,50,9.60
2009,04,24,12,51,9.60
2009,04,24,12,52,9.70
2009,04,24,12,53,9.80
2009,04,24,12,54,9.90
2009,04,24,12,55,10.00
2009,04,24,12,56,10.20
2009,04,24,12,57,10.30
2009,04,24,12,58,10.30
2009,04,24,12,59,10.30
2009,04,24,13,00,10.30
2009,04,24,13,01,10.30
2009,04,24,13,02,10.20
2009,04,24,13,03,10.20
2009,04,24,13,04,10.20
2009,04,24,13,05,10.20
2009,04,24,13,06,10.20
2009,04,24,13,07,10.30
2009,04,24,13,08,10.20
2009,04,24,13,09,10.20
2009,04,24,13,10,10.10
2009,04,24,13,11,10.10
2009,04,24,13,12,10.10
2009,04,24,13,13,10.10
2009,04,24,13,14,10.10
2009,04,24,13,15,10.20
2009,04,24,13,16,10.10
2009,04,24,13,17,10.10
2009,04,24,13,18,10.10
2009,04,24,13,19,10.10
2009,04,24,13,20,10.10
2009,04,24,13,21,10.10
2009,04,24,13,22,10.00
2009,04,24,13,23,10.00
2009,04,24,13,24,10.00
2009,04,24,13,25,10.10
2009,04,24,13,26,10.10
2009,04,24,13,27,10.10
2009,04,24,13,28,10.00
2009,04,24,13,29,9.90
2009,04,24,13,30,9.80
2009,04,24,13,31,9.80
2009,04,24,13,32,9.80
2009,04,24,13,33,9.80
2009,04,24,13,34,9.90
2009,04,24,13,35,9.90
2009,04,24,13,36,10.10
2009,04,24,13,37,10.10
2009,04,24,13,38,10.10
2009,04,24,13,39,10.10
2009,04,24,13,40,10.20
2009,04,24,13,41,10.20
2009,04,24,13,42,10.20
2009,04,24,13,43,10.30
2009,04,24,13,44,10.30
2009,04,24,13,45,10.40
2009,04,24,13,46,10.40
2009,04,24,13,47,10.50
2009,04,24,13,48,10.60
2009,04,24,13,49,10.70
2009,04,24,13,50,10.80
2009,04,24,13,51,10.80
2009,04,24,13,52,10.80
2009,04,24,13,53,10.70
2009,04,24,13,54,10.60
2009,04,24,13,55,10.60
2009,04,24,13,56,10.50
2009,04,24,13,57,10.50
2009,04,24,13,58,10.50
2009,04,24,13,59,10.50
2009,04,24,14,00,10.50
2009,04,24,14,01,10.60
2009,04,24,14,02,10.70
2009,04,24,14,03,10.70
2009,04,24,14,04,10.60
2009,04,24,14,05,10.60
2009,04,24,14,06,10.60
2009,04,24,14,07,10.60
2009,04,24,14,08,10.60
2009,04,24,14,09,10.60
2009,04,24,14,10,10.70
2009,04,24,14,11,10.70
2009,04,24,14,12,10.80
2009,04,24,14,13,11.00
2009,04,24,14,14,11.10
2009,04,24,14,15,11.10
2009,04,24,14,16,11.10
2009,04,24,14,17,11.10
2009,04,24,14,18,11.10
2009,04,24,14,19,11.10
2009,04,24,14,20,11.20
2009,04,24,14,21,11.20
2009,04,24,14,22,11.10
2009,04,24,14,23,11.10
2009,04,24,14,24,11.10
2009,04,24,14,25,11.10
2009,04,24,14,26,11.10
2009,04,24,14,27,11.10
2009,04,24,14,28,11.10
2009,04,24,14,29,11.10
2009,04,24,14,30,11.20
2009,04,24,14,31,11.20
2009,04,24,14,32,11.20
2009,04,24,14,33,11.30
2009,04,24,14,34,11.30
2009,04,24,14,35,11.30
2009,04,24,14,36,11.30
2009,04,24,14,37,11.30
2009,04,24,14,38,11.30
2009,04,24,14,39,11.30
2009,04,24,14,40,11.30
2009,04,24,14,41,11.20
2009,04,24,14,42,11.20
2009,04,24,14,43,11.20
2009,04,24,14,44,11.20
2009,04,24,14,45,11.20
2009,04,24,14,46,11.30
2009,04,24,14,47,11.30
2009,04,24,14,48,11.30
2009,04,24,14,49,11.20
2009,04,24,14,50,11.20
2009,04,24,14,51,11.20
2009,04,24,14,52,11.30
2009,04,24,14,53,11.30
2009,04,24,14,54,11.40
2009,04,24,14,55,11.50
2009,04,24,14,56,11.60
2009,04,24,14,57,11.60
2009,04,24,14,58,11.60
2009,04,24,14,59,11.60
2009,04,24,15,00,11.60
2009,04,24,15,01,11.60
2009,04,24,15,02,11.70
2009,04,24,15,03,11.80
2009,04,24,15,04,11.90
2009,04,24,15,05,12.00
2009,04,24,15,06,12.10
2009,04,24,15,07,12.10
2009,04,24,15,08,12.10
2009,04,24,15,09,12.00
2009,04,24,15,10,11.90
2009,04,24,15,11,11.80
2009,04,24,15,12,11.80
2009,04,24,15,13,11.90
2009,04,24,15,14,12.00
2009,04,24,15,15,12.00
2009,04,24,15,16,12.00
2009,04,24,15,17,12.00
2009,04,24,15,18,12.00
2009,04,24,15,19,12.10
2009,04,24,15,20,12.10
2009,04,24,15,21,12.10
2009,04,24,15,22,12.20
2009,04,24,15,23,12.30
2009,04,24,15,24,12.40
2009,04,24,15,25,12.40
2009,04,24,15,26,12.40
2009,04,24,15,27,12.50
2009,04,24,15,28,12.60
2009,04,24,15,29,12.70
2009,04,24,15,30,12.80
2009,04,24,15,31,12.80
2009,04,24,15,32,12.80
2009,04,24,15,33,12.70
2009,04,24,15,34,12.70
2009,04,24,15,35,12.80
2009,04,24,15,36,12.80
2009,04,24,15,37,12.70
2009,04,24,15,38,12.70
2009,04,24,15,39,12.60
2009,04,24,15,40,12.50
2009,04,24,15,41,12.40
2009,04,24,15,42,12.40
2009,04,24,15,43,12.40
2009,04,24,15,44,12.40
2009,04,24,15,45,12.30
2009,04,24,15,46,12.30
2009,04,24,15,47,12.30
2009,04,24,15,48,12.30
2009,04,24,15,49,12.30
2009,04,24,15,50,12.30
2009,04,24,15,51,12.30
2009,04,24,15,52,12.30
2009,04,24,15,53,12.30
2009,04,24,15,54,12.30
2009,04,24,15,55,12.40
2009,04,24,15,56,12.40
2009,04,24,15,57,12.50
2009,04,24,15,58,12.50
2009,04,24,15,59,12.60
2009,04,24,16,00,12.70
2009,04,24,16,01,12.70
2009,04,24,16,02,12.80
2009,04,24,16,03,12.80
2009,04,24,16,04,12.90
2009,04,24,16,05,12.90
2009,04,24,16,06,13.00
2009,04,24,16,07,13.10
2009,04,24,16,08,13.10
2009,04,24,16,09,13.10
2009,04,24,16,10,13.20
2009,04,24,16,11,13.20
2009,04,24,16,12,13.30
2009,04,24,16,13,13.30
2009,04,24,16,14,13.40
2009,04,24,16,15,13.40
2009,04,24,16,16,13.50
2009,04,24,16,17,13.60
2009,04,24,16,18,13.70
2009,04,24,16,19,13.80
2009,04,24,16,20,13.90
2009,04,24,16,21,13.90
2009,04,24,16,22,14.00
2009,04,24,16,23,14.00
2009,04,24,16,24,14.00
2009,04,24,16,25,14.00
2009,04,24,16,26,14.00
2009,04,24,16,27,14.10
2009,04,24,16,28,14.10
2009,04,24,16,29,14.10
2009,04,24,16,30,14.10
2009,04,24,16,31,14.10
2009,04,24,16,32,14.10
2009,04,24,16,33,14.10
2009,04,24,16,34,14.00
2009,04,24,16,35,13.80
2009,04,24,16,36,13.80
2009,04,24,16,37,13.80
2009,04,24,16,38,13.70
2009,04,24,16,39,13.70
2009,04,24,16,40,13.70
2009,04,24,16,41,13.80
2009,04,24,16,42,13.90
2009,04,24,16,43,13.90
2009,04,24,16,44,13.90
2009,04,24,16,45,13.90
2009,04,24,16,46,13.90
2009,04,24,16,47,14.00
2009,04,24,16,48,14.00
2009,04,24,16,49,14.00
2009,04,24,16,50,14.00
2009,04,24,16,51,14.10
2009,04,24,16,52,14.10
2009,04,24,16,53,14.10
2009,04,24,16,54,14.10
2009,04,24,16,55,14.10
2009,04,24,16,56,14.00
2009,04,24,16,57,14.00
2009,04,24,16,58,13.90
2009,04,24,16,59,13.90
2009,04,24,17,00,13.90
2009,04,24,17,01,13.90
2009,04,24,17,02,13.90
2009,04,24,17,03,13.90
2009,04,24,17,04,14.00
2009,04,24,17,05,14.00
2009,04,24,17,06,13.90
2009,04,24,17,07,13.80
2009,04,24,17,08,13.70
2009,04,24,17,09,13.70
2009,04,24,17,10,13.60
2009,04,24,17,11,13.60
2009,04,24,17,12,13.60
2009,04,24,17,13,13.60
2009,04,24,17,14,13.50
2009,04,24,17,15,13.40
2009,04,24,17,16,13.30
2009,04,24,17,17,13.30
2009,04,24,17,18,13.30
2009,04,24,17,19,13.20
2009,04,24,17,20,13.20
2009,04,24,17,21,13.20
2009,04,24,17,22,13.10
2009,04,24,17,23,13.10
2009,04,24,17,24,13.10
2009,04,24,17,25,13.10
2009,04,24,17,26,13.10
2009,04,24,17,27,13.10
2009,04,24,17,28,13.10
2009,04,24,17,29,13.10
2009,04,24,17,30,13.00
2009,04,24,17,31,13.00
2009,04,24,17,32,13.00
2009,04,24,17,33,12.90
2009,04,24,17,34,12.90
2009,04,24,17,35,13.00
2009,04,24,17,36,12.90
2009,04,24,17,37,12.90
2009,04,24,17,38,12.90
2009,04,24,17,39,12.90
2009,04,24,17,40,12.90
2009,04,24,17,41,12.90
2009,04,24,17,42,12.90
2009,04,24,17,43,12.90
2009,04,24,17,44,12.90
2009,04,24,17,45,12.90
2009,04,24,17,46,12.90
2009,04,24,17,47,12.90
2009,04,24,17,48,12.80
2009,04,24,17,49,12.80
2009,04,24,17,50,12.80
2009,04,24,17,51,12.80
2009,04,24,17,52,12.80
2009,04,24,17,53,12.80